Weather in Khrenovoe

Russia / Voronezh Oblast     51°07′07″N   40°17′02″E
temp.,
°C
wind,
m/s
gust,
m/s
humid.,
%
clouds,
%
prec.,
mm/h
press.,
hPa
HPBL,
m
27 february, sat
sat2700:00+2wnw51198100 0.1 1010355
03:00+1w41097100 0.1 1010361
06:00+2w41096100 0.0 1008378
09:00+2w51291100 0.0 1009482
12:00+2wnw71192100 0.0 1008755
15:00+3wnw7128699 0.1 1009931
18:00+2wnw61293100 0.1 1009644
21:00+1nw6109799 0.1 1012504
28 february, sun
sun2800:00−2nnw5108096 0.1 1013625
03:00−4nnw478048 0.1 1015449
06:00−4nnw36820 0.0 1015445
09:00−3nnw478122 0.0 1016494
12:00−1nw467985 0.0 1016605
15:00+1nw467284 0.0 1016809
18:00−1wnw229896 0.1 101666
21:00−1w249996 0.4 1018110
1 march, mon
mon100:00−1nne359687 0.3 1019243
03:00−3ne359381 0.3 1021286
06:00−5nne358685 0.0 1022354
09:00−5nne357855 0.0 1025459
12:00−3nne336774 0.0 1026617
15:00−1n336584 0.0 1027731
18:00−3nw237696 0.0 102696
21:00−3wsw247987 0.0 1027134
2 march, tue
tue200:00−3wsw488565 0.0 1025373
03:00−2wsw5118183 0.0 1023510
06:00−1wsw71379100 0.0 1020550
09:00−1wsw81591100 0.1 1017649
12:00+1w91496100 1.3 1014759
15:00+1wnw71297100 1.8 1013705
18:00+1nw5128568 0.2 1013573
21:000nw5128469 0.3 1015660
3 march, wed
wed300:000nw5118499 0.1 1015579
03:00−1wnw499699 0.3 1015382
06:00−1nw51181100 0.2 1015633
09:00−1nw7118497 0.3 1016923
12:000nnw71070100 0.4 10171284
15:000nnw71160100 0.6 10181488
18:00−1nw5117129 0.0 1019737
21:00−2nw5108442 0.0 1022624